West Memphis, AR

4:28 PM CDT on August 24, 2019 (GMT -0500)
West Memphis Municipal

Weather History for KAWM - July, 2019

Change the Weather History Date:

Sunday, July 21, 2019

  Actual Average Record
Temperature  
Mean Temperature 84 °F -  
Max Temperature 91 °F 92 °F 100 °F (2008)
Min Temperature 77 °F 71 °F 58 °F (1970)
Cooling Degree Days 19    
Growing Degree Days 34 (Base 50)    
Moisture  
Dew Point 78 °F    
Average Humidity 87    
Maximum Humidity 100    
Minimum Humidity 61    
Precipitation  
Precipitation 0.00 in - - ()
Sea Level Pressure  
Sea Level Pressure 29.94 in    
Wind  
Wind Speed 6 mph (SSW)    
Max Wind Speed 12 mph    
Max Gust Speed -    
Visibility 8 miles    
Events Thunderstorm    
Averages and records for this station are not official NWS values.
T = Trace of Precipitation, MM = Missing Value Source: NWS Daily Summary

Daily Weather History Graph

Daily Weather History Graph

Search for Another Location

Airport or City:

Astronomy

Jul. 21, 2019 Rise Set
Actual Time 6:01 AM CDT 8:12 PM CDT
Civil Twilight 5:33 AM CDT 8:41 PM CDT
Nautical Twilight 4:58 AM CDT 9:16 PM CDT
Astronomical Twilight 4:20 AM CDT 9:53 PM CDT
Moon 11:16 PM CDT (7/21) 10:14 AM CDT (7/21)
Length of Visible Light 15h 07m
Length of Day
14h 10m
Waning Gibbous, 80% of the Moon is Illuminated
Jul 21
Waning Gibbous
Jul 24
Last Quarter
Jul 31
New
Aug 7
First Quarter
Aug 15
Full

Hourly Weather History & Observations

Time (CDT) Temp. Heat Index Dew Point Humidity Pressure Visibility Wind Dir Wind Speed Gust Speed Precip Events Conditions
12:53 AM 78.1 °F - 77.0 °F 96% 29.94 in 9.0 mi SSE 4.6 mph - N/A   Clear
1:53 AM 77.0 °F - 77.0 °F 100% 29.94 in 9.0 mi South 6.9 mph - N/A   Clear
2:53 AM 77.0 °F - 75.9 °F 96% 29.94 in 9.0 mi South 5.8 mph - N/A   Clear
3:53 AM 77.0 °F - 75.9 °F 96% 29.93 in 9.0 mi South 6.9 mph - N/A   Clear
4:29 AM 77.0 °F - 75.9 °F 96% 29.94 in 9.0 mi South 8.1 mph - N/A   Partly Cloudy
4:53 AM 77.0 °F - 75.9 °F 96% 29.93 in 9.0 mi South 6.9 mph - N/A   Clear
5:53 AM 77.0 °F - 75.9 °F 96% 29.96 in 9.0 mi South 5.8 mph - N/A   Partly Cloudy
6:53 AM 77.0 °F - 77.0 °F 100% 29.98 in 8.0 mi South 5.8 mph - N/A   Mostly Cloudy
7:02 AM 77.0 °F - 77.0 °F 100% 29.99 in 8.0 mi South 6.9 mph - N/A   Mostly Cloudy
7:53 AM 80.1 °F 86.4 °F 78.1 °F 94% 29.96 in 10.0 mi SSW 6.9 mph - N/A   Mostly Cloudy
8:00 AM 80.1 °F 85.8 °F 77.0 °F 90% 29.98 in 10.0 mi SSW 5.8 mph - N/A   Scattered Clouds
8:53 AM 82.9 °F 92.8 °F 78.1 °F 85% 29.97 in 10.0 mi Variable 5.8 mph - N/A   Partly Cloudy
9:53 AM 84.9 °F 97.5 °F 79.0 °F 82% 29.97 in 10.0 mi SSW 4.6 mph - N/A   Partly Cloudy
10:53 AM 88.0 °F 103.1 °F 79.0 °F 75% 29.97 in 10.0 mi Variable 4.6 mph - N/A   Clear
11:53 AM 90.0 °F 105.8 °F 79.0 °F 70% 29.96 in 10.0 mi SW 6.9 mph - N/A   Partly Cloudy
12:53 PM 89.1 °F 103.2 °F 78.1 °F 70% 29.95 in 10.0 mi West 3.5 mph - N/A   Mostly Cloudy
1:53 PM 90.0 °F 104.5 °F 78.1 °F 68% 29.93 in 10.0 mi WSW 5.8 mph - N/A   Partly Cloudy
2:53 PM 91.0 °F 102.9 °F 75.9 °F 61% 29.92 in 10.0 mi West 3.5 mph - N/A   Clear
3:53 PM 89.1 °F 103.2 °F 78.1 °F 70% 29.92 in 10.0 mi SSE 9.2 mph - N/A   Clear
4:19 PM 88.0 °F 101.3 °F 78.1 °F 72% 29.93 in 10.0 mi South 11.5 mph - N/A Thunderstorm Clear
4:34 PM 86.0 °F 98.3 °F 78.1 °F 77% 29.92 in 10.0 mi SSE 11.5 mph - N/A   Clear
4:53 PM 86.0 °F 96.9 °F 77.0 °F 74% 29.91 in 10.0 mi South 6.9 mph - N/A   Clear
5:53 PM 86.0 °F 99.3 °F 79.0 °F 79% 29.91 in 10.0 mi South 11.5 mph - N/A   Clear
6:53 PM 86.0 °F 99.3 °F 79.0 °F 79% 29.91 in 10.0 mi South 9.2 mph - N/A   Clear
7:53 PM 84.0 °F 96.0 °F 79.0 °F 85% 29.91 in 9.0 mi SSW 5.8 mph - N/A   Partly Cloudy
8:53 PM 81.0 °F 89.2 °F 79.0 °F 94% 29.90 in 8.0 mi SSW 3.5 mph - N/A   Clear
9:14 PM 82.0 °F 91.0 °F 78.1 °F 88% 29.92 in 2.0 mi SSW 4.6 mph - N/A   Clear
9:53 PM 80.1 °F 86.4 °F 78.1 °F 94% 29.92 in 3.0 mi South 4.6 mph - N/A   Clear
10:00 PM 80.1 °F 86.4 °F 78.1 °F 94% 29.93 in 1.8 mi South 4.6 mph - N/A   Clear
10:13 PM 80.1 °F 86.4 °F 78.1 °F 94% 29.93 in 2.0 mi South 5.8 mph - N/A   Clear
10:23 PM 80.1 °F 86.4 °F 78.1 °F 94% 29.94 in 1.8 mi South 4.6 mph - N/A   Clear
10:53 PM 80.1 °F 86.4 °F 78.1 °F 94% 29.91 in 2.0 mi South 4.6 mph - N/A   Clear
11:35 PM 80.1 °F 86.4 °F 78.1 °F 94% 29.93 in 1.5 mi South 3.5 mph - N/A   Clear
11:53 PM 80.1 °F 86.4 °F 78.1 °F 94% 29.91 in 1.8 mi South 3.5 mph - N/A   Clear